Weather History for Hof Plauen, Germany

Change the Weather History Date:

Tuesday, May 14, 2013

  Actual Average Record
Temperature  
Mean Temperature 52 °F -  
Max Temperature 59 °F 61 °F 78 °F (1997)
Min Temperature 46 °F 44 °F 30 °F (2012)
Degree Days  
Heating Degree Days 12    
Growing Degree Days 2 (Base 50)    
Moisture  
Dew Point 42 °F    
Average Humidity 71    
Maximum Humidity 90    
Minimum Humidity 41    
Precipitation  
Precipitation 0.00 in - - ()
Sea Level Pressure  
Sea Level Pressure 29.89 in    
Wind  
Wind Speed 8 mph ()    
Max Wind Speed 15 mph    
Max Gust Speed -    
Visibility 6.9 miles    
Events Rain    
Averages and records for this station are not official NWS values.
T = Trace of Precipitation, MM = Missing Value Source: Averaged Metar Reports

Daily Weather History Graph

Daily Weather History Graph

Search for Another Location

Airport:

Trip Planner

Search our weather history database for the weather conditions in past years. The results will help you decide how hot, cold, wet, or windy it might be!

Date:

Astronomy

May. 14, 2013 Rise Set
Actual Time 5:26 AM CEST 8:51 PM CEST
Civil Twilight 4:47 AM CEST 9:31 PM CEST
Nautical Twilight 3:54 AM CEST 10:24 PM CEST
Astronomical Twilight 2:43 AM CEST 11:37 PM CEST
Moon 8:51 AM CEST (5/14) No Moon Set
Length of Visible Light 16h 44m
Length of Day
15h 24m
Waxing Crescent, 17% of the Moon is Illuminated
May 14
Waxing Crescent
May 18
First Quarter
May 25
Full
May 31
Last Quarter
Jun 8
New

Hourly Weather History & Observations

Time (CEST) Temp. Windchill Dew Point Humidity Pressure Visibility Wind Dir Wind Speed Gust Speed Precip Events Conditions
12:00 AM 48 °F - 46 °F 89% 29.97 in 6 mi SW 8.9 mph - - Rain Rain
12:20 AM 48.2 °F - 44.6 °F 87% 29.95 in 6.2 mi SSW 9.2 mph - N/A   Overcast
12:50 AM 48.2 °F - 44.6 °F 87% 29.95 in 6.2 mi SW 10.4 mph - N/A   Overcast
1:00 AM 48 °F - 46 °F 89% 29.96 in 4 mi SW 8.9 mph - - Rain Light Drizzle
1:20 AM 48.2 °F - 44.6 °F 87% 29.95 in 4.3 mi SW 9.2 mph - N/A   Light Drizzle
1:50 AM 48.2 °F - 44.6 °F 87% 29.95 in 6.2 mi SSW 8.1 mph - N/A   Mostly Cloudy
2:00 AM 48 °F - 46 °F 89% 29.95 in 7 mi SW 8.9 mph - - Rain Rain
2:20 AM 48.2 °F - 44.6 °F 87% 29.95 in 6.2 mi SSW 8.1 mph - N/A   Overcast
2:50 AM 48.2 °F - 44.6 °F 87% 29.92 in 6.2 mi SW 9.2 mph - N/A   Overcast
3:00 AM 48 °F - 46 °F 88% 29.94 in 7 mi SW 6.7 mph - -   Overcast
3:20 AM 48.2 °F - 44.6 °F 87% 29.92 in 6.2 mi SW 10.4 mph - N/A   Overcast
3:50 AM 48.2 °F - 42.8 °F 82% 29.92 in 6.2 mi SSW 9.2 mph - N/A   Overcast
4:00 AM 47 °F - 45 °F 90% 29.94 in 7 mi SW 8.9 mph - -  
4:20 AM 48.2 °F - 44.6 °F 87% 29.92 in 6.2 mi SSW 6.9 mph - N/A   Overcast
4:50 AM 48.2 °F - 42.8 °F 82% 29.92 in 6.2 mi SW 5.8 mph - N/A   Overcast
5:20 AM 46.4 °F 42.9 °F 42.8 °F 87% 29.92 in 6.2 mi South 6.9 mph - N/A   Overcast
5:50 AM 46.4 °F 42.4 °F 42.8 °F 87% 29.92 in 6.2 mi SSW 8.1 mph - N/A   Overcast
6:00 AM 47 °F - 44 °F 86% 29.94 in 8 mi SW 8.9 mph - -   Partly Cloudy
6:20 AM 46.4 °F 41.9 °F 42.8 °F 87% 29.92 in 6.2 mi SW 9.2 mph - N/A   Overcast
6:50 AM 46.4 °F 42.4 °F 42.8 °F 87% 29.92 in 6.2 mi SW 8.1 mph - N/A   Overcast
7:00 AM 47 °F - 44 °F 86% 29.94 in 8 mi WSW 6.7 mph - -   Overcast
7:20 AM 48.2 °F - 42.8 °F 82% 29.92 in 6.2 mi SW 6.9 mph - N/A   Overcast
7:50 AM 48.2 °F - 42.8 °F 82% 29.92 in 6.2 mi SW 9.2 mph - N/A   Overcast
8:00 AM 48 °F - 45 °F 84% 29.94 in 12 mi SW 6.7 mph - -   Overcast
8:20 AM 48.2 °F - 42.8 °F 82% 29.92 in 6.2 mi SSW 9.2 mph - N/A   Overcast
8:50 AM 48.2 °F - 42.8 °F 82% 29.92 in 6.2 mi SSW 6.9 mph - N/A   Overcast
9:00 AM 48 °F - 44 °F 81% 29.94 in 12 mi WSW 4.5 mph - -   Overcast
9:20 AM 48.2 °F - 42.8 °F 82% 29.92 in 6.2 mi SW 8.1 mph - N/A   Overcast
9:50 AM 50.0 °F - 42.8 °F 76% 29.92 in 6.2 mi SSW 11.5 mph - N/A   Mostly Cloudy
10:00 AM 50 °F - 44 °F 72% 29.93 in 19 mi SW 8.9 mph - -   Mostly Cloudy
10:20 AM 51.8 °F - 41.0 °F 67% 29.92 in 6.2 mi SW 11.5 mph - N/A   Mostly Cloudy
10:50 AM 53.6 °F - 42.8 °F 67% 29.92 in 6.2 mi SW 11.5 mph - N/A   Mostly Cloudy
11:20 AM 51.8 °F - 39.2 °F 62% 29.92 in 6.2 mi SW 9.2 mph - N/A   Overcast
11:50 AM 53.6 °F - 39.2 °F 58% 29.92 in 6.2 mi SSW 12.7 mph - N/A   Mostly Cloudy
12:00 PM 53 °F - 42 °F 55% 29.90 in 25 mi SW 8.9 mph - -   Mostly Cloudy
12:20 PM 53.6 °F - 41.0 °F 62% 29.92 in 6.2 mi SSW 13.8 mph - N/A   Mostly Cloudy
12:50 PM 53.6 °F - 41.0 °F 62% 29.92 in 6.2 mi SW 12.7 mph - N/A   Overcast
1:00 PM 53 °F - 43 °F 59% 29.90 in 28 mi SW 8.9 mph - -   Mostly Cloudy
1:20 PM 55.4 °F - 37.4 °F 51% 29.89 in 6.2 mi SW 15.0 mph - N/A   Mostly Cloudy
1:50 PM 55.4 °F - 37.4 °F 51% 29.89 in 6.2 mi SSW 13.8 mph - N/A   Mostly Cloudy
2:00 PM 55 °F - 42 °F 50% 29.88 in 31 mi SW 11.2 mph - -   Mostly Cloudy
2:20 PM 55.4 °F - 39.2 °F 54% 29.89 in - SW 13.8 mph - N/A   Clear
3:00 PM 57 °F - 41 °F 45% 29.86 in 34 mi SW 8.9 mph - -   Mostly Cloudy
3:20 PM 55.4 °F - 39.2 °F 54% 29.89 in 6.2 mi SW 13.8 mph - N/A   Mostly Cloudy
3:50 PM 57.2 °F - 39.2 °F 51% 29.89 in 6.2 mi SSW 11.5 mph - N/A   Mostly Cloudy
4:00 PM 57 °F - 40 °F 42% 29.85 in 34 mi SSW 8.9 mph - -   Mostly Cloudy
4:20 PM 57.2 °F - 37.4 °F 48% 29.86 in 6.2 mi SSW 10.4 mph - N/A   Mostly Cloudy
4:50 PM 57.2 °F - 39.2 °F 51% 29.86 in 6.2 mi South 8.1 mph - N/A   Mostly Cloudy
5:20 PM 57.2 °F - 41.0 °F 55% 29.86 in 6.2 mi SSW 11.5 mph - N/A   Mostly Cloudy
5:50 PM 59.0 °F - 39.2 °F 48% 29.86 in 6.2 mi SSW 10.4 mph - N/A   Scattered Clouds
6:00 PM 58 °F - 40 °F 41% 29.82 in 31 mi South 8.9 mph - -   Partly Cloudy
6:20 PM 57.2 °F - 39.2 °F 51% 29.83 in 6.2 mi SW 9.2 mph - N/A   Scattered Clouds
7:00 PM 58 °F - 41 °F 43% 29.81 in 31 mi SW 4.5 mph - -   Scattered Clouds
7:20 PM 57.2 °F - 39.2 °F 51% 29.83 in - SSW 6.9 mph - N/A   Clear
7:50 PM 55.4 °F - 41.0 °F 58% 29.83 in 6.2 mi SSW 3.5 mph - N/A   Partly Cloudy
8:00 PM 56 °F - 42 °F 50% 29.81 in 37 mi SSW 2.2 mph - -   Scattered Clouds
8:20 PM 51.8 °F - 42.8 °F 71% 29.83 in 6.2 mi Variable 2.3 mph - N/A   Partly Cloudy
8:50 PM 51.8 °F - 41.0 °F 67% 29.80 in 6.2 mi SE 3.5 mph - N/A   Unknown
9:00 PM 53 °F - 43 °F 60% 29.80 in 28 mi SSE 2.2 mph - -   Clear
9:20 PM 50.0 °F - 41.0 °F 71% 29.80 in 6.2 mi SE 3.5 mph - N/A   Unknown
9:50 PM 48.2 °F - 41.0 °F 76% 29.80 in 6.2 mi Variable 2.3 mph - N/A   Unknown
10:00 PM 51 °F - 44 °F 69% 29.80 in 18 mi SE 4.5 mph - -  
10:20 PM 48.2 °F - 41.0 °F 76% 29.80 in 6.2 mi ESE 3.5 mph - N/A   Unknown
10:50 PM 46.4 °F - 39.2 °F 76% 29.80 in 6.2 mi Calm Calm - N/A   Unknown
11:20 PM 46.4 °F - 41.0 °F 81% 29.77 in 6.2 mi Variable 2.3 mph - N/A   Unknown
11:50 PM 48.2 °F - 41.0 °F 76% 29.77 in 6.2 mi SSE 3.5 mph - N/A   Unknown